Content
SEND FEEDBACK

Daily
Averages
Monthly
Summary
United States of America

KETCHIKAN, ALASKA


Home > North America > United States > Alaska
Elevation: 381 feet     Latitude: 55 23N     Longitude: 131 28W

WEATHER
 
SELECT A DAY
Number of Records: 206,553;   Date Range: 1/1/95 - 7/26/14
 
SHARE

PRINT THIS DATA

[ ← Previous Day ]
WEATHER ALMANAC - JANUARY 23, 2013
[ Next Day → ]
[ °C ]   °F
Weather ElementAverageHighLow
Temperature41 °F43 °F (10:53 am)39.2 °F (7:03 pm)
Dewpoint38.8 °F41 °F (10:53 am)37 °F (5:53 pm)
Humidity92 %97 % (7:53 am)86 % (5:53 pm)
Barometer29.73 in29.82 in (11:53 pm)29.68 in (1:53 am)
Wind Speed9.1 mph17.3 mph (11:53 pm)
Wind Gust20.7 mph (3:53 am)
Weather ElementAverage
Visibility7.9 mi
Wind DirectionSSE (146.1 °)

Weather ElementTotal
Precipitation0.93 in
Heating Degree Days23.9 (Base 65)
Averaged from 33 records on January 23, 2013
WEATHER CONDITIONS BREAKOUT
WIND DIRECTION BREAKOUT
WEATHER BY HOUR - JANUARY 23, 2013
[ °C ]   °F
Local TimeTemperatureDewpointHumidityBarometerVisibilityWind DirectionWind SpeedGust SpeedPrecipitationEventsConditions
1:53 AM41.0 °F37.9 °F89 %29.68 in5.0 miSE (140°)12.7 mph0.10 inRainLight Rain
3:24 AM41.0 °F39.2 °F93 %29.68 in4.0 miSE (140°)11.5 mph0.02 inRainLight Rain
3:36 AM41.0 °F39.2 °F93 %29.68 in4.0 miSE (140°)13.8 mph19.6 mph0.03 inRainLight Rain
3:53 AM41.0 °F39.0 °F93 %29.68 in4.0 miSSE (150°)13.8 mph20.7 mph0.04 inRainLight Rain
4:07 AM41.0 °F39.2 °F93 %29.68 in3.0 miSE (140°)15.0 mph20.7 mph0.03 inRainLight Rain
4:47 AM41.0 °F39.2 °F93 %29.68 in2.5 miSSE (150°)6.9 mph0.14 inRainHeavy Rain
4:53 AM41.0 °F39.0 °F93 %29.68 in2.0 miSE (140°)10.4 mph16.1 mph0.18 inRainHeavy Rain
5:01 AM41.0 °F39.2 °F93 %29.68 in3.0 miSE (140°)9.2 mph0.03 inRainRain
5:48 AM41.0 °F39.2 °F93 %29.69 in10.0 miSSE (160°)4.6 mph0.07 inOvercast
5:53 AM41.0 °F39.9 °F96 %29.69 in10.0 miSSE (150°)4.6 mph0.07 inOvercast
6:53 AM41.0 °F39.9 °F96 %29.70 in10.0 miSSE (150°)4.6 mph0.01 inOvercast
7:53 AM39.9 °F39.0 °F97 %29.70 in10.0 miSSE (160°)3.5 mph0.01 inRainLight Rain
8:53 AM41.0 °F39.9 °F96 %29.71 in10.0 miSE (140°)3.5 mph0.00 inRainLight Rain
9:53 AM41.0 °F39.9 °F96 %29.71 in8.0 miSouth (170°)3.5 mph0.01 inRainLight Rain
10:53 AM43.0 °F41.0 °F93 %29.72 in10.0 miSSE (160°)4.6 mph0.00 inOvercast
11:53 AM43.0 °F39.9 °F89 %29.71 in10.0 miSE (140°)8.1 mphOvercast
12:53 PM43.0 °F39.9 °F89 %29.70 in10.0 miSE (130°)12.7 mph0.00 inOvercast
1:53 PM43.0 °F39.9 °F89 %29.71 in10.0 miSE (130°)11.5 mph0.01 inMostly Cloudy
2:53 PM42.1 °F39.9 °F92 %29.71 in10.0 miSE (140°)8.1 mphOvercast
3:53 PM42.1 °F39.0 °F89 %29.72 in10.0 miSE (140°)15.0 mph0.00 inRainLight Rain
4:53 PM41.0 °F37.9 °F89 %29.73 in8.0 miSE (140°)6.9 mph0.01 inRainLight Rain
5:53 PM41.0 °F37.0 °F86 %29.73 in10.0 miSE (140°)10.4 mph0.02 inRainLight Rain
6:53 PM39.9 °F37.0 °F89 %29.75 in7.0 miSSE (150°)8.1 mph0.01 inRainLight Rain
7:03 PM39.2 °F37.4 °F93 %29.75 in7.0 miSE (140°)10.4 mph0.00 inRainLight Rain
7:53 PM39.9 °F37.0 °F89 %29.76 in10.0 miSE (140°)9.2 mph0.02 inRainLight Rain
8:11 PM39.2 °F37.4 °F93 %29.77 in7.0 miSE (140°)10.4 mph0.02 inRainLight Rain
8:46 PM39.2 °F37.4 °F93 %29.78 in9.0 miSE (140°)9.2 mph0.03 inRainLight Rain
8:53 PM39.9 °F37.9 °F93 %29.78 in8.0 miSE (140°)10.4 mph0.03 inRainLight Rain
9:53 PM41.0 °F37.9 °F89 %29.79 in10.0 miSouth (170°)9.2 mph0.00 inOvercast
10:42 PM41.0 °F39.2 °F93 %29.80 in10.0 miSouth (170°)4.6 mph0.02 inRainLight Rain
10:53 PM41.0 °F39.0 °F93 %29.81 in10.0 miSouth (170°)5.8 mph0.02 inRainLight Rain
11:06 PM41.0 °F39.2 °F93 %29.80 in10.0 miSE (140°)10.4 mph16.1 mph0.00 inOvercast
11:53 PM41.0 °F37.9 °F89 %29.82 in10.0 miSE (130°)17.3 mph0.00 inRainLight Rain
Hourly data recorded from PAKT, located miles away from Ketchikan, Alaska







STORIES FROM OUR PARTNERS